Proserpine Hamilton Isla, Australia

8:57 AM AEST on February 20, 2017 (GMT +1000)
Hamilton Island

Weather History for YBHM - October, 2012

Change the Weather History Date:

Saturday, October 27, 2012

  Actual Average Record
Temperature  
Mean Temperature 74 °F -  
Max Temperature 80 °F - - ()
Min Temperature 69 °F - - ()
Cooling Degree Days 10    
Growing Degree Days 24 (Base 50)    
Moisture  
Dew Point 59 °F    
Average Humidity 58    
Maximum Humidity 68    
Minimum Humidity 45    
Precipitation  
Precipitation 0.00 in - - ()
Sea Level Pressure  
Sea Level Pressure 29.84 in    
Wind  
Wind Speed 8 mph ()    
Max Wind Speed 18 mph    
Max Gust Speed -    
T = Trace of Precipitation, MM = Missing Value Source: Averaged Metar Reports

Daily Weather History Graph

Daily Weather History Graph

Search for Another Location

Airport or City:

Trip Planner

Search our weather history database for the weather conditions in past years. The results will help you decide how hot, cold, wet, or windy it might be!

Date:

Astronomy

Oct. 27, 2012 Rise Set
Actual Time 5:25 AM AEST 6:11 PM AEST
Civil Twilight 5:02 AM AEST 6:34 PM AEST
Nautical Twilight 4:35 AM AEST 7:00 PM AEST
Astronomical Twilight 4:08 AM AEST 7:28 PM AEST
Moon 4:03 PM AEST (10/27) 3:25 AM AEST (10/27)
Length of Visible Light 13h 31m
Length of Day
12h 46m
Waxing Gibbous, 93% of the Moon is Illuminated
Oct 27
Waxing Gibbous
Oct 30
Full
Nov 7
Last Quarter
Nov 14
New
Nov 21
First Quarter

Hourly Weather History & Observations

Time (AEST) Temp. Heat Index Dew Point Humidity Pressure Visibility Wind Dir Wind Speed Gust Speed Precip Events Conditions
12:00 AM 71 °F - 57 °F 51% 29.86 in - NNW 6.9 mph - -  
12:00 AM 71.6 °F - 57.2 °F 60% 29.86 in - NNW 6.9 mph - N/A   Unknown
12:30 AM 71.6 °F - 59.0 °F 64% 29.83 in - NNW 8.1 mph - N/A   Unknown
1:00 AM 71.6 °F - 57.2 °F 60% 29.83 in - NNW 8.1 mph - N/A   Unknown
1:30 AM 71.6 °F - 57.2 °F 60% 29.83 in - NNW 9.2 mph - N/A   Unknown
2:00 AM 71.6 °F - 57.2 °F 60% 29.80 in - NNW 9.2 mph - N/A   Unknown
2:30 AM 69.8 °F - 59.0 °F 68% 29.80 in - NNW 8.1 mph - N/A   Unknown
3:00 AM 70 °F - 58 °F 57% 29.81 in - NNW 6.9 mph - -  
3:00 AM 69.8 °F - 59.0 °F 68% 29.80 in - NNW 6.9 mph - N/A   Unknown
3:30 AM 69.8 °F - 59.0 °F 68% 29.80 in - NNW 5.8 mph - N/A   Unknown
4:00 AM 69.8 °F - 59.0 °F 68% 29.80 in - NNW 5.8 mph - N/A   Unknown
4:30 AM 69.8 °F - 59.0 °F 68% 29.80 in - North 5.8 mph - N/A   Unknown
5:00 AM 69.8 °F - 59.0 °F 68% 29.80 in - North 5.8 mph - N/A   Unknown
5:30 AM 69.8 °F - 59.0 °F 68% 29.83 in - NNW 4.6 mph - N/A   Unknown
6:00 AM 71 °F - 58 °F 53% 29.82 in - North 5.8 mph - -  
6:00 AM 71.6 °F - 57.2 °F 60% 29.83 in - North 5.8 mph - N/A   Unknown
6:30 AM 71.6 °F - 59.0 °F 64% 29.83 in - North 1.2 mph - N/A   Unknown
7:00 AM 71.6 °F - 59.0 °F 64% 29.83 in - NNW 5.8 mph - N/A   Unknown
7:30 AM 73.4 °F - 60.8 °F 65% 29.83 in - NNW 8.1 mph - N/A   Unknown
8:00 AM 75.2 °F - 60.8 °F 61% 29.83 in - NNW 10.4 mph - N/A   Unknown
8:30 AM 75.2 °F - 59.0 °F 57% 29.86 in - NW 8.1 mph - N/A   Unknown
9:00 AM 76 °F - 59 °F 46% 29.86 in - NW 9.2 mph - -  
9:00 AM 77.0 °F - 59.0 °F 54% 29.86 in - NW 9.2 mph - N/A   Unknown
9:30 AM 77.0 °F - 59.0 °F 54% 29.86 in - WNW 5.8 mph - N/A   Unknown
10:00 AM 80.6 °F 81.5 °F 60.8 °F 51% 29.86 in - East 5.8 mph - N/A   Unknown
10:30 AM 78.8 °F - 60.8 °F 54% 29.86 in - ESE 8.1 mph - N/A   Unknown
11:00 AM 78.8 °F - 60.8 °F 54% 29.86 in - ESE 15.0 mph - N/A   Unknown
11:30 AM 78.8 °F - 60.8 °F 54% 29.86 in - East 15.0 mph - N/A   Unknown
12:00 PM 78 °F - 60 °F 45% 29.86 in - East 15.0 mph - -  
12:00 PM 78.8 °F - 60.8 °F 54% 29.86 in - East 15.0 mph - N/A   Unknown
12:30 PM 77.0 °F - 59.0 °F 54% 29.86 in - East 16.1 mph - N/A   Unknown
1:00 PM 78.8 °F - 60.8 °F 54% 29.83 in - East 15.0 mph - N/A   Unknown
1:30 PM 77.0 °F - 59.0 °F 54% 29.83 in - East 16.1 mph - N/A   Unknown
2:00 PM 77.0 °F - 59.0 °F 54% 29.83 in - East 18.4 mph - N/A   Unknown
2:30 PM 77.0 °F - 59.0 °F 54% 29.80 in - East 17.3 mph - N/A   Unknown
3:00 PM 77 °F - 60 °F 45% 29.81 in - East 15.0 mph - -  
3:00 PM 77.0 °F - 59.0 °F 54% 29.80 in - East 15.0 mph - N/A   Unknown
3:30 PM 77.0 °F - 57.2 °F 50% 29.80 in - East 15.0 mph - N/A   Unknown
4:00 PM 77.0 °F - 57.2 °F 50% 29.80 in - East 15.0 mph - N/A   Unknown
4:30 PM 78.8 °F - 57.2 °F 47% 29.80 in - NNE 12.7 mph - N/A   Unknown
5:00 PM 77.0 °F - 57.2 °F 50% 29.83 in - NE 11.5 mph - N/A   Unknown
5:30 PM 77.0 °F - 57.2 °F 50% 29.83 in - NE 11.5 mph - N/A   Unknown
6:00 PM 75.2 °F - 59.0 °F 57% 29.83 in - NNE 10.4 mph - N/A   Unknown
6:30 PM 73.4 °F - 59.0 °F 61% 29.83 in - NNE 10.4 mph - N/A   Unknown
7:00 PM 73.4 °F - 59.0 °F 61% 29.86 in - North 8.1 mph - N/A   Unknown
7:30 PM 73.4 °F - 59.0 °F 61% 29.86 in - North 5.8 mph - N/A   Unknown
8:00 PM 73.4 °F - 59.0 °F 61% 29.89 in - North 5.8 mph - N/A   Unknown
8:30 PM 73.4 °F - 59.0 °F 61% 29.89 in - North 4.6 mph - N/A   Unknown
9:00 PM 73 °F - 59 °F 53% 29.90 in - Calm Calm - -  
9:00 PM 73.4 °F - 59.0 °F 61% 29.89 in - Calm Calm - N/A   Unknown
9:30 PM 71.6 °F - 59.0 °F 64% 29.89 in - Calm Calm - N/A   Unknown
10:00 PM 71.6 °F - 59.0 °F 64% 29.89 in - ENE 5.8 mph - N/A   Unknown
10:30 PM 71.6 °F - 57.2 °F 60% 29.89 in - ENE 3.5 mph - N/A   Unknown
11:00 PM 71.6 °F - 59.0 °F 64% 29.89 in - Calm Calm - N/A   Unknown